Albany, OH

2:43 PM EST on January 18, 2017 (GMT -0500)
Ohio University

Weather History for KUNI - July, 2013

Change the Weather History Date:

Sunday, July 21, 2013

  Actual Average (KLHQ) Record (KLHQ)
Temperature  
Mean Temperature 76 °F -  
Max Temperature 83 °F 85 °F 97 °F (1977)
Min Temperature 69 °F 62 °F 44 °F (1970)
Cooling Degree Days 11    
Growing Degree Days 26 (Base 50)    
Moisture  
Dew Point 69 °F    
Average Humidity 84    
Maximum Humidity 97    
Minimum Humidity 60    
Precipitation  
Precipitation 0.00 in - - ()
Sea Level Pressure  
Sea Level Pressure 29.95 in    
Wind  
Wind Speed 1 mph (South)    
Max Wind Speed 7 mph    
Max Gust Speed -    
Visibility 6 miles    
Events Fog , Rain , Thunderstorm    
Averages and records for this station are not official NWS values.
T = Trace of Precipitation, MM = Missing Value Source: NWS Daily Summary

Daily Weather History Graph

Daily Weather History Graph

Search for Another Location

Airport or City:

Trip Planner

Search our weather history database for the weather conditions in past years. The results will help you decide how hot, cold, wet, or windy it might be!

Date:

Astronomy

Jul. 21, 2013 Rise Set
Actual Time 6:19 AM EDT 8:50 PM EDT
Civil Twilight 5:49 AM EDT 9:21 PM EDT
Nautical Twilight 5:10 AM EDT 9:59 PM EDT
Astronomical Twilight 4:28 AM EDT 10:41 PM EDT
Moon 7:47 PM EDT (7/21) 5:04 AM EDT (7/21)
Length of Visible Light 15h 32m
Length of Day
14h 30m
Waxing Gibbous, 98% of the Moon is Illuminated
Jul 21
Waxing Gibbous
Jul 22
Full
Jul 29
Last Quarter
Aug 6
New
Aug 14
First Quarter

Hourly Weather History & Observations

Time (EDT) Temp. Heat Index Dew Point Humidity Pressure Visibility Wind Dir Wind Speed Gust Speed Precip Events Conditions
12:15 AM 69.8 °F - 68.2 °F 95% 29.94 in 5.0 mi Calm Calm - N/A   Scattered Clouds
12:35 AM 69.4 °F - 68.0 °F 95% 29.94 in 0.5 mi Calm Calm - N/A Fog Fog
12:55 AM 69.4 °F - 68.2 °F 96% 29.94 in 3.0 mi Calm Calm - N/A   Overcast
1:15 AM 69.8 °F - 68.5 °F 96% 29.95 in 5.0 mi Calm Calm - N/A   Overcast
1:35 AM 69.8 °F - 68.5 °F 96% 29.95 in 2.0 mi Calm Calm - N/A   Overcast
1:55 AM 70.0 °F - 68.9 °F 96% 29.93 in 1.0 mi Calm Calm - N/A   Overcast
2:15 AM 69.8 °F - 68.5 °F 96% 29.93 in 1.2 mi Calm Calm - N/A   Overcast
2:35 AM 69.8 °F - 68.4 °F 95% 29.94 in 0.2 mi SSW 3.5 mph - N/A Fog Fog
2:55 AM 69.8 °F - 68.4 °F 95% 29.94 in 0.2 mi Calm Calm - N/A Fog Fog
3:15 AM 69.4 °F - 68.2 °F 96% 29.94 in 0.2 mi Calm Calm - N/A Fog Fog
3:35 AM 69.8 °F - 68.4 °F 95% 29.93 in 0.2 mi Calm Calm - N/A Fog Fog
3:55 AM 69.8 °F - 68.4 °F 95% 29.93 in 1.5 mi Calm Calm - N/A   Overcast
4:15 AM 69.8 °F - 68.4 °F 95% 29.92 in 1.8 mi Calm Calm - N/A   Overcast
4:35 AM 69.8 °F - 68.4 °F 95% 29.93 in 0.2 mi Calm Calm - N/A Fog Fog
4:55 AM 69.6 °F - 68.4 °F 96% 29.92 in 2.5 mi Calm Calm - N/A   Overcast
5:15 AM 69.4 °F - 68.4 °F 96% 29.93 in 0.2 mi Calm Calm - N/A Fog Fog
5:35 AM 69.4 °F - 68.4 °F 96% 29.94 in 0.2 mi Calm Calm - N/A Fog Fog
5:55 AM 69.4 °F - 68.4 °F 96% 29.94 in 0.2 mi Calm Calm - N/A Fog Fog
6:15 AM 69.4 °F - 68.4 °F 96% 29.94 in 0.2 mi Calm Calm - N/A Fog Fog
6:35 AM 69.3 °F - 68.2 °F 96% 29.95 in 0.5 mi Calm Calm - N/A Fog Fog
6:55 AM 69.3 °F - 68.2 °F 96% 29.96 in 1.8 mi Calm Calm - N/A   Overcast
7:15 AM 69.4 °F - 68.4 °F 96% 29.96 in 4.0 mi Calm Calm - N/A Rain , Thunderstorm Light Thunderstorms and Rain
7:35 AM 69.6 °F - 68.5 °F 96% 29.96 in 3.0 mi Calm Calm - N/A Rain Light Rain
7:55 AM 69.8 °F - 68.7 °F 96% 29.97 in 4.0 mi Calm Calm - N/A Rain Light Rain
8:15 AM 69.8 °F - 68.9 °F 97% 29.97 in 10.0 mi Calm Calm - N/A Rain Light Rain
8:35 AM 70.2 °F - 68.9 °F 96% 29.97 in 10.0 mi Calm Calm - N/A Rain Light Rain
8:55 AM 70.3 °F - 69.1 °F 96% 29.98 in 10.0 mi Calm Calm - N/A   Mostly Cloudy
9:15 AM 70.7 °F - 69.3 °F 95% 29.97 in 10.0 mi Calm Calm - N/A   Overcast
9:35 AM 70.9 °F - 69.4 °F 95% 29.98 in 10.0 mi Calm Calm - N/A   Overcast
9:55 AM 72.1 °F - 70.0 °F 93% 29.97 in 10.0 mi Calm Calm - N/A Thunderstorm Mostly Cloudy
10:15 AM 73.6 °F - 69.8 °F 88% 29.97 in 10.0 mi North 4.6 mph - N/A   Mostly Cloudy
10:35 AM 74.7 °F - 69.8 °F 85% 29.97 in 10.0 mi Calm Calm - N/A   Scattered Clouds
10:55 AM 75.4 °F - 69.4 °F 82% 29.98 in 10.0 mi Calm Calm - N/A   Mostly Cloudy
11:15 AM 75.6 °F - 69.6 °F 82% 29.99 in 10.0 mi SSW 5.8 mph - N/A   Mostly Cloudy
11:35 AM 75.2 °F - 69.4 °F 82% 29.99 in 10.0 mi SSW 4.6 mph - N/A   Overcast
11:55 AM 76.6 °F - 69.6 °F 79% 29.99 in 10.0 mi Calm Calm - N/A   Mostly Cloudy
12:15 PM 76.3 °F - 68.5 °F 77% 30.00 in 10.0 mi Calm Calm - N/A   Mostly Cloudy
12:35 PM 77.5 °F - 68.9 °F 75% 29.99 in 10.0 mi SSE 3.5 mph - N/A   Scattered Clouds
12:55 PM 78.1 °F - 68.9 °F 73% 29.99 in 10.0 mi Calm Calm - N/A   Scattered Clouds
1:55 PM 79.9 °F - 69.3 °F 70% 29.98 in 10.0 mi South 3.5 mph - N/A   Mostly Cloudy
2:15 PM 80.6 °F 83.6 °F 69.1 °F 68% 29.97 in 10.0 mi South 4.6 mph - N/A   Scattered Clouds
2:35 PM 80.8 °F 83.8 °F 68.7 °F 67% 29.97 in 10.0 mi South 3.5 mph - N/A   Clear
2:55 PM 81.9 °F 85.4 °F 69.4 °F 66% 29.96 in 10.0 mi SSW 6.9 mph - N/A   Scattered Clouds
3:15 PM 80.8 °F 83.6 °F 68.4 °F 66% 29.95 in 10.0 mi South 3.5 mph - N/A   Scattered Clouds
3:35 PM 82.2 °F 85.3 °F 68.5 °F 63% 29.94 in 10.0 mi Calm Calm - N/A   Mostly Cloudy
3:55 PM 81.7 °F 84.5 °F 68.2 °F 63% 29.94 in 10.0 mi Calm Calm - N/A   Overcast
4:15 PM 80.6 °F 83.2 °F 68.0 °F 65% 29.94 in 10.0 mi Calm Calm - N/A   Scattered Clouds
4:35 PM 83.3 °F 86.9 °F 69.1 °F 62% 29.94 in 10.0 mi WSW 3.5 mph - N/A   Scattered Clouds
4:55 PM 83.3 °F 86.4 °F 68.2 °F 60% 29.93 in 10.0 mi East 4.6 mph - N/A   Mostly Cloudy
5:15 PM 81.3 °F 84.3 °F 68.5 °F 65% 29.93 in 10.0 mi East 3.5 mph - N/A   Overcast
5:35 PM 81.3 °F 84.0 °F 67.6 °F 63% 29.92 in 10.0 mi Calm Calm - N/A   Scattered Clouds
5:55 PM 81.1 °F 84.4 °F 69.3 °F 67% 29.92 in 10.0 mi Calm Calm - N/A   Scattered Clouds
6:15 PM 81.5 °F 84.6 °F 68.9 °F 65% 29.92 in 10.0 mi Calm Calm - N/A   Scattered Clouds
6:35 PM 81.5 °F 84.9 °F 69.4 °F 67% 29.92 in 10.0 mi Calm Calm - N/A   Clear
6:55 PM 81.7 °F 85.2 °F 69.6 °F 67% 29.91 in 10.0 mi Calm Calm - N/A   Clear
7:15 PM 80.6 °F 83.8 °F 69.4 °F 69% 29.91 in 10.0 mi Calm Calm - N/A   Clear
7:35 PM 80.8 °F 84.2 °F 70.0 °F 70% 29.91 in 10.0 mi Calm Calm - N/A   Clear
7:55 PM 80.4 °F 83.6 °F 70.0 °F 70% 29.91 in 10.0 mi Calm Calm - N/A   Clear
8:15 PM 79.5 °F - 69.8 °F 72% 29.91 in 10.0 mi Calm Calm - N/A   Clear
8:35 PM 77.2 °F - 72.5 °F 85% 29.92 in 10.0 mi Calm Calm - N/A   Clear
8:55 PM 76.1 °F - 71.6 °F 86% 29.92 in 10.0 mi Calm Calm - N/A   Clear
9:15 PM 74.8 °F - 71.6 °F 90% 29.93 in 5.0 mi Calm Calm - N/A   Clear
9:35 PM 73.6 °F - 70.5 °F 90% 29.94 in 2.5 mi Calm Calm - N/A   Clear
9:55 PM 73.8 °F - 70.7 °F 90% 29.94 in 4.0 mi Calm Calm - N/A   Clear
10:15 PM 73.2 °F - 70.7 °F 92% 29.95 in 4.0 mi Calm Calm - N/A   Clear
10:35 PM 72.9 °F - 70.3 °F 92% 29.96 in 5.0 mi Calm Calm - N/A   Clear
10:55 PM 72.9 °F - 70.7 °F 93% 29.96 in 4.0 mi Calm Calm - N/A   Clear
11:15 PM 73.0 °F - 70.9 °F 93% 29.95 in 4.0 mi Calm Calm - N/A   Clear
11:35 PM 72.5 °F - 70.3 °F 93% 29.95 in 3.0 mi Calm Calm - N/A   Clear
11:55 PM 72.1 °F - 70.2 °F 93% 29.96 in 3.0 mi Calm Calm - N/A   Clear